Year,Month,Day,Hour,Minute,Value (Times are PST for temperature in C)
2021,06,08,00,00,10.10
2021,06,08,00,01,10.10
2021,06,08,00,02,10.10
2021,06,08,00,03,10.00
2021,06,08,00,04,10.00
2021,06,08,00,05,9.90
2021,06,08,00,06,9.90
2021,06,08,00,07,9.90
2021,06,08,00,08,9.90
2021,06,08,00,09,9.90
2021,06,08,00,10,9.90
2021,06,08,00,11,9.90
2021,06,08,00,12,9.90
2021,06,08,00,13,9.80
2021,06,08,00,14,9.80
2021,06,08,00,15,9.80
2021,06,08,00,16,9.80
2021,06,08,00,17,9.80
2021,06,08,00,18,9.70
2021,06,08,00,19,9.70
2021,06,08,00,20,9.70
2021,06,08,00,21,9.70
2021,06,08,00,22,9.70
2021,06,08,00,23,9.70
2021,06,08,00,24,9.60
2021,06,08,00,25,9.60
2021,06,08,00,26,9.60
2021,06,08,00,27,9.60
2021,06,08,00,28,9.50
2021,06,08,00,29,9.50
2021,06,08,00,30,9.50
2021,06,08,00,31,9.50
2021,06,08,00,32,9.50
2021,06,08,00,33,9.50
2021,06,08,00,34,9.50
2021,06,08,00,35,9.50
2021,06,08,00,36,9.50
2021,06,08,00,37,9.40
2021,06,08,00,38,9.50
2021,06,08,00,39,9.50
2021,06,08,00,40,9.50
2021,06,08,00,41,9.50
2021,06,08,00,42,9.50
2021,06,08,00,43,9.60
2021,06,08,00,44,9.60
2021,06,08,00,45,9.60
2021,06,08,00,46,9.50
2021,06,08,00,47,9.50
2021,06,08,00,48,9.50
2021,06,08,00,49,9.40
2021,06,08,00,50,9.40
2021,06,08,00,51,9.40
2021,06,08,00,52,9.30
2021,06,08,00,53,9.30
2021,06,08,00,54,9.30
2021,06,08,00,55,9.20
2021,06,08,00,56,9.20
2021,06,08,00,57,9.20
2021,06,08,00,58,9.20
2021,06,08,00,59,9.20
2021,06,08,01,00,9.10
2021,06,08,01,01,9.10
2021,06,08,01,02,9.10
2021,06,08,01,03,9.10
2021,06,08,01,04,9.10
2021,06,08,01,05,9.10
2021,06,08,01,06,9.10
2021,06,08,01,07,9.10
2021,06,08,01,08,9.10
2021,06,08,01,09,9.10
2021,06,08,01,10,9.10
2021,06,08,01,11,9.10
2021,06,08,01,12,9.00
2021,06,08,01,13,9.00
2021,06,08,01,14,8.90
2021,06,08,01,15,8.90
2021,06,08,01,16,8.90
2021,06,08,01,17,8.80
2021,06,08,01,18,8.80
2021,06,08,01,19,8.80
2021,06,08,01,20,8.80
2021,06,08,01,21,8.80
2021,06,08,01,22,8.80
2021,06,08,01,23,8.80
2021,06,08,01,24,8.80
2021,06,08,01,25,8.80
2021,06,08,01,26,8.80
2021,06,08,01,27,8.80
2021,06,08,01,28,8.80
2021,06,08,01,29,8.70
2021,06,08,01,30,8.70
2021,06,08,01,31,8.70
2021,06,08,01,32,8.70
2021,06,08,01,33,8.70
2021,06,08,01,34,8.70
2021,06,08,01,35,8.70
2021,06,08,01,36,8.70
2021,06,08,01,37,8.70
2021,06,08,01,38,8.70
2021,06,08,01,39,8.70
2021,06,08,01,40,8.70
2021,06,08,01,41,8.70
2021,06,08,01,42,8.70
2021,06,08,01,43,8.70
2021,06,08,01,44,8.60
2021,06,08,01,45,8.60
2021,06,08,01,46,8.60
2021,06,08,01,47,8.60
2021,06,08,01,48,8.60
2021,06,08,01,49,8.50
2021,06,08,01,50,8.50
2021,06,08,01,51,8.50
2021,06,08,01,52,8.60
2021,06,08,01,53,8.60
2021,06,08,01,54,8.50
2021,06,08,01,55,8.50
2021,06,08,01,56,8.50
2021,06,08,01,57,8.40
2021,06,08,01,58,8.40
2021,06,08,01,59,8.40
2021,06,08,02,00,8.40
2021,06,08,02,01,8.30
2021,06,08,02,02,8.30
2021,06,08,02,03,8.30
2021,06,08,02,04,8.30
2021,06,08,02,05,8.30
2021,06,08,02,06,8.20
2021,06,08,02,07,8.20
2021,06,08,02,08,8.20
2021,06,08,02,09,8.20
2021,06,08,02,10,8.20
2021,06,08,02,11,8.20
2021,06,08,02,12,8.20
2021,06,08,02,13,8.20
2021,06,08,02,14,8.10
2021,06,08,02,15,8.10
2021,06,08,02,16,8.10
2021,06,08,02,17,8.10
2021,06,08,02,18,8.10
2021,06,08,02,19,8.10
2021,06,08,02,20,8.10
2021,06,08,02,21,8.10
2021,06,08,02,22,8.10
2021,06,08,02,23,8.10
2021,06,08,02,24,8.00
2021,06,08,02,25,8.00
2021,06,08,02,26,8.00
2021,06,08,02,27,8.00
2021,06,08,02,28,8.00
2021,06,08,02,29,8.00
2021,06,08,02,30,8.00
2021,06,08,02,31,8.00
2021,06,08,02,32,8.00
2021,06,08,02,33,8.00
2021,06,08,02,34,8.10
2021,06,08,02,35,8.10
2021,06,08,02,36,8.10
2021,06,08,02,37,8.10
2021,06,08,02,38,8.00
2021,06,08,02,39,8.00
2021,06,08,02,40,8.00
2021,06,08,02,41,8.00
2021,06,08,02,42,8.00
2021,06,08,02,43,7.90
2021,06,08,02,44,7.90
2021,06,08,02,45,7.90
2021,06,08,02,46,7.90
2021,06,08,02,47,7.80
2021,06,08,02,48,7.80
2021,06,08,02,49,7.80
2021,06,08,02,50,7.80
2021,06,08,02,51,7.80
2021,06,08,02,52,7.80
2021,06,08,02,53,7.80
2021,06,08,02,54,7.80
2021,06,08,02,55,7.80
2021,06,08,02,56,7.80
2021,06,08,02,57,7.80
2021,06,08,02,58,7.80
2021,06,08,02,59,7.80
2021,06,08,03,00,7.80
2021,06,08,03,01,7.80
2021,06,08,03,02,7.70
2021,06,08,03,03,7.70
2021,06,08,03,04,7.70
2021,06,08,03,05,7.70
2021,06,08,03,06,7.70
2021,06,08,03,07,7.70
2021,06,08,03,08,7.70
2021,06,08,03,09,7.70
2021,06,08,03,10,7.70
2021,06,08,03,11,7.60
2021,06,08,03,12,7.60
2021,06,08,03,13,7.60
2021,06,08,03,14,7.60
2021,06,08,03,15,7.60
2021,06,08,03,16,7.60
2021,06,08,03,17,7.60
2021,06,08,03,18,7.50
2021,06,08,03,19,7.50
2021,06,08,03,20,7.50
2021,06,08,03,21,7.50
2021,06,08,03,22,7.50
2021,06,08,03,23,7.40
2021,06,08,03,24,7.40
2021,06,08,03,25,7.40
2021,06,08,03,26,7.40
2021,06,08,03,27,7.40
2021,06,08,03,28,7.40
2021,06,08,03,29,7.40
2021,06,08,03,30,7.40
2021,06,08,03,31,7.40
2021,06,08,03,32,7.40
2021,06,08,03,33,7.40
2021,06,08,03,34,7.40
2021,06,08,03,35,7.40
2021,06,08,03,36,7.40
2021,06,08,03,37,7.40
2021,06,08,03,38,7.50
2021,06,08,03,39,7.50
2021,06,08,03,40,7.50
2021,06,08,03,41,7.50
2021,06,08,03,42,7.40
2021,06,08,03,43,7.50
2021,06,08,03,44,7.50
2021,06,08,03,45,7.50
2021,06,08,03,46,7.50
2021,06,08,03,47,7.50
2021,06,08,03,48,7.50
2021,06,08,03,49,7.50
2021,06,08,03,50,7.50
2021,06,08,03,51,7.50
2021,06,08,03,52,7.40
2021,06,08,03,53,7.40
2021,06,08,03,54,7.40
2021,06,08,03,55,7.40
2021,06,08,03,56,7.40
2021,06,08,03,57,7.40
2021,06,08,03,58,7.30
2021,06,08,03,59,7.30
2021,06,08,04,00,7.30
2021,06,08,04,01,7.20
2021,06,08,04,02,7.20
2021,06,08,04,03,7.20
2021,06,08,04,04,7.20
2021,06,08,04,05,7.20
2021,06,08,04,06,7.20
2021,06,08,04,07,7.20
2021,06,08,04,08,7.20
2021,06,08,04,09,7.30
2021,06,08,04,10,7.30
2021,06,08,04,11,7.30
2021,06,08,04,12,7.30
2021,06,08,04,13,7.30
2021,06,08,04,14,7.30
2021,06,08,04,15,7.30
2021,06,08,04,16,7.30
2021,06,08,04,17,7.30
2021,06,08,04,18,7.30
2021,06,08,04,19,7.30
2021,06,08,04,20,7.30
2021,06,08,04,21,7.20
2021,06,08,04,22,7.20
2021,06,08,04,23,7.20
2021,06,08,04,24,7.10
2021,06,08,04,25,7.10
2021,06,08,04,26,7.10
2021,06,08,04,27,7.00
2021,06,08,04,28,7.00
2021,06,08,04,29,7.00
2021,06,08,04,30,7.00
2021,06,08,04,31,6.90
2021,06,08,04,32,6.90
2021,06,08,04,33,6.90
2021,06,08,04,34,6.90
2021,06,08,04,35,7.00
2021,06,08,04,36,6.90
2021,06,08,04,37,6.90
2021,06,08,04,38,6.90
2021,06,08,04,39,6.90
2021,06,08,04,40,6.90
2021,06,08,04,41,6.90
2021,06,08,04,42,6.90
2021,06,08,04,43,6.80
2021,06,08,04,44,6.80
2021,06,08,04,45,6.80
2021,06,08,04,46,6.80
2021,06,08,04,47,6.80
2021,06,08,04,48,6.80
2021,06,08,04,49,6.80
2021,06,08,04,50,6.80
2021,06,08,04,51,6.80
2021,06,08,04,52,6.70
2021,06,08,04,53,6.70
2021,06,08,04,54,6.70
2021,06,08,04,55,6.70
2021,06,08,04,56,6.70
2021,06,08,04,57,6.70
2021,06,08,04,58,6.70
2021,06,08,04,59,6.70
2021,06,08,05,00,6.70
2021,06,08,05,01,6.70
2021,06,08,05,02,6.80
2021,06,08,05,03,6.80
2021,06,08,05,04,6.80
2021,06,08,05,05,6.80
2021,06,08,05,06,6.80
2021,06,08,05,07,6.80
2021,06,08,05,08,6.80
2021,06,08,05,09,6.80
2021,06,08,05,10,6.80
2021,06,08,05,11,6.90
2021,06,08,05,12,6.90
2021,06,08,05,13,6.90
2021,06,08,05,14,6.80
2021,06,08,05,15,6.80
2021,06,08,05,16,6.80
2021,06,08,05,17,6.80
2021,06,08,05,18,6.80
2021,06,08,05,19,6.80
2021,06,08,05,20,6.80
2021,06,08,05,21,6.80
2021,06,08,05,22,6.80
2021,06,08,05,23,6.80
2021,06,08,05,24,6.80
2021,06,08,05,25,6.80
2021,06,08,05,26,6.80
2021,06,08,05,27,6.80
2021,06,08,05,28,6.80
2021,06,08,05,29,6.80
2021,06,08,05,30,6.80
2021,06,08,05,31,6.80
2021,06,08,05,32,6.80
2021,06,08,05,33,6.80
2021,06,08,05,34,6.80
2021,06,08,05,35,6.80
2021,06,08,05,36,6.80
2021,06,08,05,37,6.80
2021,06,08,05,38,6.80
2021,06,08,05,39,6.80
2021,06,08,05,40,6.90
2021,06,08,05,41,6.80
2021,06,08,05,42,6.80
2021,06,08,05,43,6.90
2021,06,08,05,44,6.90
2021,06,08,05,45,6.90
2021,06,08,05,46,6.90
2021,06,08,05,47,6.90
2021,06,08,05,48,6.90
2021,06,08,05,49,6.90
2021,06,08,05,50,6.90
2021,06,08,05,51,6.90
2021,06,08,05,52,6.90
2021,06,08,05,53,6.90
2021,06,08,05,54,6.90
2021,06,08,05,55,6.90
2021,06,08,05,56,6.90
2021,06,08,05,57,6.80
2021,06,08,05,58,6.80
2021,06,08,05,59,6.90
2021,06,08,06,00,6.90
2021,06,08,06,01,6.90
2021,06,08,06,02,6.90
2021,06,08,06,03,7.00
2021,06,08,06,04,7.00
2021,06,08,06,05,7.10
2021,06,08,06,06,7.10
2021,06,08,06,07,7.20
2021,06,08,06,08,7.30
2021,06,08,06,09,7.30
2021,06,08,06,10,7.40
2021,06,08,06,11,7.50
2021,06,08,06,12,7.50
2021,06,08,06,13,7.60
2021,06,08,06,14,7.60
2021,06,08,06,15,7.70
2021,06,08,06,16,7.70
2021,06,08,06,17,7.80
2021,06,08,06,18,7.90
2021,06,08,06,19,8.00
2021,06,08,06,20,8.00
2021,06,08,06,21,8.20
2021,06,08,06,22,8.20
2021,06,08,06,23,8.30
2021,06,08,06,24,8.40
2021,06,08,06,25,8.40
2021,06,08,06,26,8.50
2021,06,08,06,27,8.50
2021,06,08,06,28,8.60
2021,06,08,06,29,8.70
2021,06,08,06,30,8.80
2021,06,08,06,31,8.80
2021,06,08,06,32,8.90
2021,06,08,06,33,9.00
2021,06,08,06,34,9.00
2021,06,08,06,35,9.10
2021,06,08,06,36,9.10
2021,06,08,06,37,9.20
2021,06,08,06,38,9.30
2021,06,08,06,39,9.30
2021,06,08,06,40,9.40
2021,06,08,06,41,9.40
2021,06,08,06,42,9.50
2021,06,08,06,43,9.60
2021,06,08,06,44,9.60
2021,06,08,06,45,9.60
2021,06,08,06,46,9.70
2021,06,08,06,47,9.70
2021,06,08,06,48,9.80
2021,06,08,06,49,9.90
2021,06,08,06,50,9.90
2021,06,08,06,51,10.00
2021,06,08,06,52,10.10
2021,06,08,06,53,10.20
2021,06,08,06,54,10.20
2021,06,08,06,55,10.30
2021,06,08,06,56,10.30
2021,06,08,06,57,10.30
2021,06,08,06,58,10.30
2021,06,08,06,59,10.30
2021,06,08,07,00,10.30
2021,06,08,07,01,10.30
2021,06,08,07,02,10.40
2021,06,08,07,03,10.40
2021,06,08,07,04,10.40
2021,06,08,07,05,10.40
2021,06,08,07,06,10.40
2021,06,08,07,07,10.50
2021,06,08,07,08,10.50
2021,06,08,07,09,10.50
2021,06,08,07,10,10.50
2021,06,08,07,11,10.60
2021,06,08,07,12,10.60
2021,06,08,07,13,10.60
2021,06,08,07,14,10.60
2021,06,08,07,15,10.60
2021,06,08,07,16,10.70
2021,06,08,07,17,10.70
2021,06,08,07,18,10.70
2021,06,08,07,19,10.70
2021,06,08,07,20,10.70
2021,06,08,07,21,10.70
2021,06,08,07,22,10.80
2021,06,08,07,23,10.80
2021,06,08,07,24,10.80
2021,06,08,07,25,10.90
2021,06,08,07,26,10.90
2021,06,08,07,27,10.90
2021,06,08,07,28,11.00
2021,06,08,07,29,11.00
2021,06,08,07,30,11.10
2021,06,08,07,31,11.20
2021,06,08,07,32,11.20
2021,06,08,07,33,11.20
2021,06,08,07,34,11.30
2021,06,08,07,35,11.30
2021,06,08,07,36,11.40
2021,06,08,07,37,11.40
2021,06,08,07,38,11.40
2021,06,08,07,39,11.40
2021,06,08,07,40,11.40
2021,06,08,07,41,11.40
2021,06,08,07,42,11.40
2021,06,08,07,43,11.40
2021,06,08,07,44,11.40
2021,06,08,07,45,11.50
2021,06,08,07,46,11.50
2021,06,08,07,47,11.50
2021,06,08,07,48,11.60
2021,06,08,07,49,11.60
2021,06,08,07,50,11.60
2021,06,08,07,51,11.60
2021,06,08,07,52,11.70
2021,06,08,07,53,11.70
2021,06,08,07,54,11.70
2021,06,08,07,55,11.80
2021,06,08,07,56,11.80
2021,06,08,07,57,11.90
2021,06,08,07,58,11.90
2021,06,08,07,59,12.00
2021,06,08,08,00,12.00
2021,06,08,08,01,12.10
2021,06,08,08,02,12.10
2021,06,08,08,03,12.20
2021,06,08,08,04,12.30
2021,06,08,08,05,12.30
2021,06,08,08,06,12.30
2021,06,08,08,07,12.40
2021,06,08,08,08,12.40
2021,06,08,08,09,12.40
2021,06,08,08,10,12.50
2021,06,08,08,11,12.50
2021,06,08,08,12,12.60
2021,06,08,08,13,12.60
2021,06,08,08,14,12.60
2021,06,08,08,15,12.70
2021,06,08,08,16,12.80
2021,06,08,08,17,12.90
2021,06,08,08,18,12.90
2021,06,08,08,19,13.00
2021,06,08,08,20,13.00
2021,06,08,08,21,13.10
2021,06,08,08,22,13.10
2021,06,08,08,23,13.10
2021,06,08,08,24,13.20
2021,06,08,08,25,13.20
2021,06,08,08,26,13.20
2021,06,08,08,27,13.20
2021,06,08,08,28,13.20
2021,06,08,08,29,13.30
2021,06,08,08,30,13.40
2021,06,08,08,31,13.40
2021,06,08,08,32,13.40
2021,06,08,08,33,13.50
2021,06,08,08,34,13.60
2021,06,08,08,35,13.60
2021,06,08,08,36,13.60
2021,06,08,08,37,13.50
2021,06,08,08,38,13.50
2021,06,08,08,39,13.60
2021,06,08,08,40,13.60
2021,06,08,08,41,13.60
2021,06,08,08,42,13.60
2021,06,08,08,43,13.70
2021,06,08,08,44,13.70
2021,06,08,08,45,13.60
2021,06,08,08,46,13.60
2021,06,08,08,47,13.60
2021,06,08,08,48,13.60
2021,06,08,08,49,13.60
2021,06,08,08,50,13.70
2021,06,08,08,51,13.80
2021,06,08,08,52,13.90
2021,06,08,08,53,14.00
2021,06,08,08,54,14.10
2021,06,08,08,55,14.10
2021,06,08,08,56,14.20
2021,06,08,08,57,14.30
2021,06,08,08,58,14.30
2021,06,08,08,59,14.40
2021,06,08,09,00,14.40
2021,06,08,09,01,14.50
2021,06,08,09,02,14.50
2021,06,08,09,03,14.60
2021,06,08,09,04,14.60
2021,06,08,09,05,14.50
2021,06,08,09,06,14.40
2021,06,08,09,07,14.40
2021,06,08,09,08,14.40
2021,06,08,09,09,14.40
2021,06,08,09,10,14.40
2021,06,08,09,11,14.40
2021,06,08,09,12,14.30
2021,06,08,09,13,14.30
2021,06,08,09,14,14.30
2021,06,08,09,15,14.20
2021,06,08,09,16,14.20
2021,06,08,09,17,14.10
2021,06,08,09,18,14.20
2021,06,08,09,19,14.20
2021,06,08,09,20,14.20
2021,06,08,09,21,14.20
2021,06,08,09,22,14.30
2021,06,08,09,23,14.30
2021,06,08,09,24,14.40
2021,06,08,09,25,14.40
2021,06,08,09,26,14.40
2021,06,08,09,27,14.40
2021,06,08,09,28,14.40
2021,06,08,09,29,14.40
2021,06,08,09,30,14.50
2021,06,08,09,31,14.50
2021,06,08,09,32,14.60
2021,06,08,09,33,14.60
2021,06,08,09,34,14.70
2021,06,08,09,35,14.80
2021,06,08,09,36,14.80
2021,06,08,09,37,14.90
2021,06,08,09,38,14.90
2021,06,08,09,39,15.00
2021,06,08,09,40,15.00
2021,06,08,09,41,15.00
2021,06,08,09,42,15.00
2021,06,08,09,43,15.10
2021,06,08,09,44,15.20
2021,06,08,09,45,15.20
2021,06,08,09,46,15.10
2021,06,08,09,47,15.00
2021,06,08,09,48,15.00
2021,06,08,09,49,15.00
2021,06,08,09,50,15.00
2021,06,08,09,51,14.90
2021,06,08,09,52,14.80
2021,06,08,09,53,14.80
2021,06,08,09,54,14.80
2021,06,08,09,55,14.80
2021,06,08,09,56,14.90
2021,06,08,09,57,15.00
2021,06,08,09,58,15.10
2021,06,08,09,59,15.10
2021,06,08,10,00,15.20
2021,06,08,10,01,15.20
2021,06,08,10,02,15.10
2021,06,08,10,03,15.10
2021,06,08,10,04,15.00
2021,06,08,10,05,14.90
2021,06,08,10,06,14.90
2021,06,08,10,07,15.00
2021,06,08,10,08,15.00
2021,06,08,10,09,15.00
2021,06,08,10,10,15.00
2021,06,08,10,11,15.00
2021,06,08,10,12,15.00
2021,06,08,10,13,15.10
2021,06,08,10,14,15.10
2021,06,08,10,15,15.10
2021,06,08,10,16,15.10
2021,06,08,10,17,15.20
2021,06,08,10,18,15.20
2021,06,08,10,19,15.10
2021,06,08,10,20,15.10
2021,06,08,10,21,15.00
2021,06,08,10,22,15.00
2021,06,08,10,23,15.00
2021,06,08,10,24,15.10
2021,06,08,10,25,15.10
2021,06,08,10,26,15.10
2021,06,08,10,27,15.10
2021,06,08,10,28,15.10
2021,06,08,10,29,15.10
2021,06,08,10,30,15.10
2021,06,08,10,31,15.20
2021,06,08,10,32,15.20
2021,06,08,10,33,15.20
2021,06,08,10,34,15.20
2021,06,08,10,35,15.20
2021,06,08,10,36,15.20
2021,06,08,10,37,15.30
2021,06,08,10,38,15.30
2021,06,08,10,39,15.20
2021,06,08,10,40,15.30
2021,06,08,10,41,15.30
2021,06,08,10,42,15.30
2021,06,08,10,43,15.20
2021,06,08,10,44,15.20
2021,06,08,10,45,15.20
2021,06,08,10,46,15.30
2021,06,08,10,47,15.20
2021,06,08,10,48,15.20
2021,06,08,10,49,15.10
2021,06,08,10,50,15.10
2021,06,08,10,51,15.10
2021,06,08,10,52,15.20
2021,06,08,10,53,15.30
2021,06,08,10,54,15.40
2021,06,08,10,55,15.50
2021,06,08,10,56,15.60
2021,06,08,10,57,15.60
2021,06,08,10,58,15.60
2021,06,08,10,59,15.60
2021,06,08,11,00,15.60
2021,06,08,11,01,15.70
2021,06,08,11,02,15.70
2021,06,08,11,03,15.70
2021,06,08,11,04,15.70
2021,06,08,11,05,15.70
2021,06,08,11,06,15.70
2021,06,08,11,07,15.70
2021,06,08,11,08,15.70
2021,06,08,11,09,15.50
2021,06,08,11,10,15.50
2021,06,08,11,11,15.50
2021,06,08,11,12,15.40
2021,06,08,11,13,15.40
2021,06,08,11,14,15.50
2021,06,08,11,15,15.50
2021,06,08,11,16,15.50
2021,06,08,11,17,15.60
2021,06,08,11,18,15.50
2021,06,08,11,19,15.50
2021,06,08,11,20,15.60
2021,06,08,11,21,15.60
2021,06,08,11,22,15.70
2021,06,08,11,23,15.70
2021,06,08,11,24,15.70
2021,06,08,11,25,15.70
2021,06,08,11,26,15.80
2021,06,08,11,27,15.80
2021,06,08,11,28,15.80
2021,06,08,11,29,15.70
2021,06,08,11,30,15.70
2021,06,08,11,31,15.80
2021,06,08,11,32,15.80
2021,06,08,11,33,15.80
2021,06,08,11,34,16.00
2021,06,08,11,35,16.10
2021,06,08,11,36,16.10
2021,06,08,11,37,16.20
2021,06,08,11,38,16.20
2021,06,08,11,39,16.30
2021,06,08,11,40,16.20
2021,06,08,11,41,16.20
2021,06,08,11,42,16.20
2021,06,08,11,43,16.30
2021,06,08,11,44,16.20
2021,06,08,11,45,16.30
2021,06,08,11,46,16.30
2021,06,08,11,47,16.40
2021,06,08,11,48,16.40
2021,06,08,11,49,16.50
2021,06,08,11,50,16.60
2021,06,08,11,51,16.70
2021,06,08,11,52,16.70
2021,06,08,11,53,16.70
2021,06,08,11,54,16.60
2021,06,08,11,55,16.60
2021,06,08,11,56,16.60
2021,06,08,11,57,16.50
2021,06,08,11,58,16.40
2021,06,08,11,59,16.40
2021,06,08,12,00,16.40
2021,06,08,12,01,16.40
2021,06,08,12,02,16.40
2021,06,08,12,03,16.50
2021,06,08,12,04,16.50
2021,06,08,12,05,16.60
2021,06,08,12,06,16.60
2021,06,08,12,07,16.60
2021,06,08,12,08,16.60
2021,06,08,12,09,16.50
2021,06,08,12,10,16.20
2021,06,08,12,11,16.00
2021,06,08,12,12,15.90
2021,06,08,12,13,15.90
2021,06,08,12,14,15.80
2021,06,08,12,15,15.80
2021,06,08,12,16,15.80
2021,06,08,12,17,15.70
2021,06,08,12,18,15.80
2021,06,08,12,19,15.80
2021,06,08,12,20,15.70
2021,06,08,12,21,15.60
2021,06,08,12,22,15.60
2021,06,08,12,23,15.60
2021,06,08,12,24,15.70
2021,06,08,12,25,15.60
2021,06,08,12,26,15.40
2021,06,08,12,27,15.30
2021,06,08,12,28,15.20
2021,06,08,12,29,15.20
2021,06,08,12,30,15.20
2021,06,08,12,31,15.30
2021,06,08,12,32,15.30
2021,06,08,12,33,15.30
2021,06,08,12,34,15.40
2021,06,08,12,35,15.40
2021,06,08,12,36,15.40
2021,06,08,12,37,15.40
2021,06,08,12,38,15.50
2021,06,08,12,39,15.50
2021,06,08,12,40,15.50
2021,06,08,12,41,15.50
2021,06,08,12,42,15.30
2021,06,08,12,43,15.20
2021,06,08,12,44,15.00
2021,06,08,12,45,14.90
2021,06,08,12,46,14.80
2021,06,08,12,47,14.80
2021,06,08,12,48,14.80
2021,06,08,12,49,14.80
2021,06,08,12,50,14.70
2021,06,08,12,51,14.70
2021,06,08,12,52,14.60
2021,06,08,12,53,14.70
2021,06,08,12,54,14.70
2021,06,08,12,55,14.60
2021,06,08,12,56,14.60
2021,06,08,12,57,14.70
2021,06,08,12,58,14.90
2021,06,08,12,59,15.10
2021,06,08,13,00,15.10
2021,06,08,13,01,15.20
2021,06,08,13,02,15.30
2021,06,08,13,03,15.40
2021,06,08,13,04,15.50
2021,06,08,13,05,15.60
2021,06,08,13,06,15.70
2021,06,08,13,07,15.80
2021,06,08,13,08,15.90
2021,06,08,13,09,15.90
2021,06,08,13,10,15.80
2021,06,08,13,11,15.60
2021,06,08,13,12,15.60
2021,06,08,13,13,15.60
2021,06,08,13,14,15.60
2021,06,08,13,15,15.80
2021,06,08,13,16,16.10
2021,06,08,13,17,16.30
2021,06,08,13,18,16.40
2021,06,08,13,19,16.50
2021,06,08,13,20,16.60
2021,06,08,13,21,16.60
2021,06,08,13,22,16.50
2021,06,08,13,23,16.50
2021,06,08,13,24,16.40
2021,06,08,13,25,16.30
2021,06,08,13,26,16.20
2021,06,08,13,27,16.20
2021,06,08,13,28,16.20
2021,06,08,13,29,16.20
2021,06,08,13,30,16.40
2021,06,08,13,31,16.40
2021,06,08,13,32,16.40
2021,06,08,13,33,16.40
2021,06,08,13,34,16.30
2021,06,08,13,35,16.30
2021,06,08,13,36,16.40
2021,06,08,13,37,16.50
2021,06,08,13,38,16.60
2021,06,08,13,39,16.60
2021,06,08,13,40,16.60
2021,06,08,13,41,16.70
2021,06,08,13,42,16.70
2021,06,08,13,43,16.80
2021,06,08,13,44,16.80
2021,06,08,13,45,16.80
2021,06,08,13,46,16.80
2021,06,08,13,47,16.80
2021,06,08,13,48,16.80
2021,06,08,13,49,16.80
2021,06,08,13,50,16.90
2021,06,08,13,51,16.90
2021,06,08,13,52,17.00
2021,06,08,13,53,17.10
2021,06,08,13,54,17.10
2021,06,08,13,55,17.10
2021,06,08,13,56,17.10
2021,06,08,13,57,17.10
2021,06,08,13,58,17.00
2021,06,08,13,59,17.00
2021,06,08,14,00,16.90
2021,06,08,14,01,16.80
2021,06,08,14,02,16.80
2021,06,08,14,03,16.80
2021,06,08,14,04,16.80
2021,06,08,14,05,16.80
2021,06,08,14,06,16.90
2021,06,08,14,07,16.90
2021,06,08,14,08,16.90
2021,06,08,14,09,17.00
2021,06,08,14,10,17.00
2021,06,08,14,11,17.10
2021,06,08,14,12,17.20
2021,06,08,14,13,17.10
2021,06,08,14,14,17.10
2021,06,08,14,15,17.00
2021,06,08,14,16,16.90
2021,06,08,14,17,16.80
2021,06,08,14,18,16.80
2021,06,08,14,19,16.80
2021,06,08,14,20,16.90
2021,06,08,14,21,17.00
2021,06,08,14,22,17.00
2021,06,08,14,23,17.00
2021,06,08,14,24,17.00
2021,06,08,14,25,17.00
2021,06,08,14,26,17.00
2021,06,08,14,27,17.00
2021,06,08,14,28,16.90
2021,06,08,14,29,16.80
2021,06,08,14,30,16.70
2021,06,08,14,31,16.70
2021,06,08,14,32,16.60
2021,06,08,14,33,16.60
2021,06,08,14,34,16.70
2021,06,08,14,35,16.70
2021,06,08,14,36,16.60
2021,06,08,14,37,16.70
2021,06,08,14,38,16.70
2021,06,08,14,39,16.80
2021,06,08,14,40,16.70
2021,06,08,14,41,16.50
2021,06,08,14,42,16.40
2021,06,08,14,43,16.30
2021,06,08,14,44,16.50
2021,06,08,14,45,16.80
2021,06,08,14,46,17.10
2021,06,08,14,47,17.40
2021,06,08,14,48,17.50
2021,06,08,14,49,17.50
2021,06,08,14,50,17.40
2021,06,08,14,51,17.30
2021,06,08,14,52,17.20
2021,06,08,14,53,17.30
2021,06,08,14,54,17.30
2021,06,08,14,55,17.50
2021,06,08,14,56,17.60
2021,06,08,14,57,17.60
2021,06,08,14,58,17.60
2021,06,08,14,59,17.50
2021,06,08,15,00,17.50
2021,06,08,15,01,17.40
2021,06,08,15,02,17.30
2021,06,08,15,03,17.30
2021,06,08,15,04,17.30
2021,06,08,15,05,17.30
2021,06,08,15,06,17.30
2021,06,08,15,07,17.40
2021,06,08,15,08,17.50
2021,06,08,15,09,17.60
2021,06,08,15,10,17.50
2021,06,08,15,11,17.50
2021,06,08,15,12,17.40
2021,06,08,15,13,17.40
2021,06,08,15,14,17.30
2021,06,08,15,15,17.30
2021,06,08,15,16,17.20
2021,06,08,15,17,17.20
2021,06,08,15,18,17.20
2021,06,08,15,19,17.20
2021,06,08,15,20,17.30
2021,06,08,15,21,17.30
2021,06,08,15,22,17.30
2021,06,08,15,23,17.30
2021,06,08,15,24,17.30
2021,06,08,15,25,17.30
2021,06,08,15,26,17.20
2021,06,08,15,27,17.20
2021,06,08,15,28,17.30
2021,06,08,15,29,17.20
2021,06,08,15,30,17.00
2021,06,08,15,31,16.90
2021,06,08,15,32,16.70
2021,06,08,15,33,16.50
2021,06,08,15,34,16.40
2021,06,08,15,35,16.30
2021,06,08,15,36,16.20
2021,06,08,15,37,16.10
2021,06,08,15,38,16.10
2021,06,08,15,39,16.10
2021,06,08,15,40,16.20
2021,06,08,15,41,16.20
2021,06,08,15,42,16.20
2021,06,08,15,43,16.20
2021,06,08,15,44,16.30
2021,06,08,15,45,16.30
2021,06,08,15,46,16.30
2021,06,08,15,47,16.20
2021,06,08,15,48,16.20
2021,06,08,15,49,16.30
2021,06,08,15,50,16.30
2021,06,08,15,51,16.30
2021,06,08,15,52,16.30
2021,06,08,15,53,16.30
2021,06,08,15,54,16.20
2021,06,08,15,55,16.10
2021,06,08,15,56,16.10
2021,06,08,15,57,16.00
2021,06,08,15,58,16.00
2021,06,08,15,59,15.90
2021,06,08,16,00,15.90
2021,06,08,16,01,15.80
2021,06,08,16,02,15.70
2021,06,08,16,03,15.40
2021,06,08,16,04,15.30
2021,06,08,16,05,15.20
2021,06,08,16,06,15.20
2021,06,08,16,07,15.20
2021,06,08,16,08,15.30
2021,06,08,16,09,15.40
2021,06,08,16,10,15.50
2021,06,08,16,11,15.50
2021,06,08,16,12,15.50
2021,06,08,16,13,15.40
2021,06,08,16,14,15.40
2021,06,08,16,15,15.50
2021,06,08,16,16,15.60
2021,06,08,16,17,15.70
2021,06,08,16,18,15.70
2021,06,08,16,19,15.80
2021,06,08,16,20,15.90
2021,06,08,16,21,15.90
2021,06,08,16,22,16.00
2021,06,08,16,23,16.00
2021,06,08,16,24,16.10
2021,06,08,16,25,16.10
2021,06,08,16,26,16.10
2021,06,08,16,27,16.10
2021,06,08,16,28,16.10
2021,06,08,16,29,16.20
2021,06,08,16,30,16.20
2021,06,08,16,31,16.30
2021,06,08,16,32,16.30
2021,06,08,16,33,16.40
2021,06,08,16,34,16.50
2021,06,08,16,35,16.50
2021,06,08,16,36,16.50
2021,06,08,16,37,16.50
2021,06,08,16,38,16.50
2021,06,08,16,39,16.60
2021,06,08,16,40,16.60
2021,06,08,16,41,16.60
2021,06,08,16,42,16.60
2021,06,08,16,43,16.60
2021,06,08,16,44,16.60
2021,06,08,16,45,16.60
2021,06,08,16,46,16.60
2021,06,08,16,47,16.60
2021,06,08,16,48,16.60
2021,06,08,16,49,16.60
2021,06,08,16,50,16.40
2021,06,08,16,51,16.20
2021,06,08,16,52,16.10
2021,06,08,16,53,16.00
2021,06,08,16,54,16.00
2021,06,08,16,55,15.90
2021,06,08,16,56,15.80
2021,06,08,16,57,15.80
2021,06,08,16,58,15.60
2021,06,08,16,59,15.50
2021,06,08,17,00,15.40
2021,06,08,17,01,15.40
2021,06,08,17,02,15.40
2021,06,08,17,03,15.30
2021,06,08,17,04,15.30
2021,06,08,17,05,15.30
2021,06,08,17,06,15.20
2021,06,08,17,07,15.30
2021,06,08,17,08,15.30
2021,06,08,17,09,15.30
2021,06,08,17,10,15.30
2021,06,08,17,11,15.40
2021,06,08,17,12,15.40
2021,06,08,17,13,15.50
2021,06,08,17,14,15.60
2021,06,08,17,15,15.60
2021,06,08,17,16,15.70
2021,06,08,17,17,15.80
2021,06,08,17,18,15.80
2021,06,08,17,19,15.90
2021,06,08,17,20,16.00
2021,06,08,17,21,16.10
2021,06,08,17,22,16.00
2021,06,08,17,23,15.90
2021,06,08,17,24,15.80
2021,06,08,17,25,15.70
2021,06,08,17,26,15.70
2021,06,08,17,27,15.70
2021,06,08,17,28,15.70
2021,06,08,17,29,15.60
2021,06,08,17,30,15.60
2021,06,08,17,31,15.60
2021,06,08,17,32,15.60
2021,06,08,17,33,15.50
2021,06,08,17,34,15.50
2021,06,08,17,35,15.50
2021,06,08,17,36,15.50
2021,06,08,17,37,15.40